Year,Month,Day,Hour,Minute,Value (Times are PST for temperature in C)
2013,04,25,00,00,8.50
2013,04,25,00,01,8.40
2013,04,25,00,02,8.40
2013,04,25,00,03,8.40
2013,04,25,00,04,8.40
2013,04,25,00,05,8.40
2013,04,25,00,06,8.40
2013,04,25,00,07,8.40
2013,04,25,00,08,8.40
2013,04,25,00,09,8.40
2013,04,25,00,10,8.40
2013,04,25,00,11,8.40
2013,04,25,00,12,8.40
2013,04,25,00,13,8.40
2013,04,25,00,14,8.40
2013,04,25,00,15,8.40
2013,04,25,00,16,8.30
2013,04,25,00,17,8.30
2013,04,25,00,18,8.30
2013,04,25,00,19,8.30
2013,04,25,00,20,8.30
2013,04,25,00,21,8.30
2013,04,25,00,22,8.20
2013,04,25,00,23,8.20
2013,04,25,00,24,8.20
2013,04,25,00,25,8.20
2013,04,25,00,26,8.10
2013,04,25,00,27,8.10
2013,04,25,00,28,8.10
2013,04,25,00,29,8.10
2013,04,25,00,30,8.00
2013,04,25,00,31,8.00
2013,04,25,00,32,8.00
2013,04,25,00,33,7.90
2013,04,25,00,34,7.90
2013,04,25,00,35,7.90
2013,04,25,00,36,7.80
2013,04,25,00,37,7.80
2013,04,25,00,38,7.80
2013,04,25,00,39,7.80
2013,04,25,00,40,7.70
2013,04,25,00,41,7.70
2013,04,25,00,42,7.70
2013,04,25,00,43,7.70
2013,04,25,00,44,7.70
2013,04,25,00,45,7.70
2013,04,25,00,46,7.70
2013,04,25,00,47,7.70
2013,04,25,00,48,7.70
2013,04,25,00,49,7.70
2013,04,25,00,50,7.70
2013,04,25,00,51,7.70
2013,04,25,00,52,7.70
2013,04,25,00,53,7.70
2013,04,25,00,54,7.70
2013,04,25,00,55,7.70
2013,04,25,00,56,7.70
2013,04,25,00,57,7.70
2013,04,25,00,58,7.70
2013,04,25,00,59,7.70
2013,04,25,01,00,7.70
2013,04,25,01,01,7.70
2013,04,25,01,02,7.70
2013,04,25,01,03,7.70
2013,04,25,01,04,7.70
2013,04,25,01,05,7.70
2013,04,25,01,06,7.70
2013,04,25,01,07,7.70
2013,04,25,01,08,7.70
2013,04,25,01,09,7.70
2013,04,25,01,10,7.70
2013,04,25,01,11,7.80
2013,04,25,01,12,7.80
2013,04,25,01,13,7.80
2013,04,25,01,14,7.80
2013,04,25,01,15,7.80
2013,04,25,01,16,7.80
2013,04,25,01,17,7.90
2013,04,25,01,18,7.90
2013,04,25,01,19,7.90
2013,04,25,01,20,7.90
2013,04,25,01,21,7.90
2013,04,25,01,22,7.90
2013,04,25,01,23,7.90
2013,04,25,01,24,7.90
2013,04,25,01,25,7.90
2013,04,25,01,26,7.90
2013,04,25,01,27,7.90
2013,04,25,01,28,7.90
2013,04,25,01,29,7.90
2013,04,25,01,30,7.90
2013,04,25,01,31,7.90
2013,04,25,01,32,7.90
2013,04,25,01,33,7.90
2013,04,25,01,34,7.90
2013,04,25,01,35,7.90
2013,04,25,01,36,7.90
2013,04,25,01,37,8.00
2013,04,25,01,38,8.00
2013,04,25,01,39,8.00
2013,04,25,01,40,8.00
2013,04,25,01,41,8.00
2013,04,25,01,42,8.00
2013,04,25,01,43,8.00
2013,04,25,01,44,7.90
2013,04,25,01,45,7.90
2013,04,25,01,46,7.90
2013,04,25,01,47,7.90
2013,04,25,01,48,7.90
2013,04,25,01,49,7.90
2013,04,25,01,50,7.90
2013,04,25,01,51,7.90
2013,04,25,01,52,7.90
2013,04,25,01,53,7.90
2013,04,25,01,54,7.90
2013,04,25,01,55,7.90
2013,04,25,01,56,7.90
2013,04,25,01,57,7.90
2013,04,25,01,58,7.90
2013,04,25,01,59,7.90
2013,04,25,02,00,7.90
2013,04,25,02,01,7.90
2013,04,25,02,02,7.90
2013,04,25,02,03,7.90
2013,04,25,02,04,7.90
2013,04,25,02,05,7.90
2013,04,25,02,06,7.90
2013,04,25,02,07,7.90
2013,04,25,02,08,7.80
2013,04,25,02,09,7.80
2013,04,25,02,10,7.80
2013,04,25,02,11,7.80
2013,04,25,02,12,7.80
2013,04,25,02,13,7.80
2013,04,25,02,14,7.80
2013,04,25,02,15,7.80
2013,04,25,02,16,7.80
2013,04,25,02,17,7.80
2013,04,25,02,18,7.80
2013,04,25,02,19,7.80
2013,04,25,02,20,7.80
2013,04,25,02,21,7.80
2013,04,25,02,22,7.80
2013,04,25,02,23,7.80
2013,04,25,02,24,7.80
2013,04,25,02,25,7.80
2013,04,25,02,26,7.80
2013,04,25,02,27,7.80
2013,04,25,02,28,7.70
2013,04,25,02,29,7.70
2013,04,25,02,30,7.70
2013,04,25,02,31,7.70
2013,04,25,02,32,7.70
2013,04,25,02,33,7.70
2013,04,25,02,34,7.70
2013,04,25,02,35,7.70
2013,04,25,02,36,7.70
2013,04,25,02,37,7.70
2013,04,25,02,38,7.60
2013,04,25,02,39,7.60
2013,04,25,02,40,7.60
2013,04,25,02,41,7.60
2013,04,25,02,42,7.60
2013,04,25,02,43,7.60
2013,04,25,02,44,7.50
2013,04,25,02,45,7.50
2013,04,25,02,46,7.50
2013,04,25,02,47,7.40
2013,04,25,02,48,7.40
2013,04,25,02,49,7.40
2013,04,25,02,50,7.40
2013,04,25,02,51,7.30
2013,04,25,02,52,7.30
2013,04,25,02,53,7.30
2013,04,25,02,54,7.30
2013,04,25,02,55,7.30
2013,04,25,02,56,7.30
2013,04,25,02,57,7.30
2013,04,25,02,58,7.30
2013,04,25,02,59,7.30
2013,04,25,03,00,7.20
2013,04,25,03,01,7.20
2013,04,25,03,02,7.20
2013,04,25,03,03,7.20
2013,04,25,03,04,7.20
2013,04,25,03,05,7.20
2013,04,25,03,06,7.20
2013,04,25,03,07,7.20
2013,04,25,03,08,7.20
2013,04,25,03,09,7.20
2013,04,25,03,10,7.20
2013,04,25,03,11,7.20
2013,04,25,03,12,7.20
2013,04,25,03,13,7.20
2013,04,25,03,14,7.20
2013,04,25,03,15,7.20
2013,04,25,03,16,7.20
2013,04,25,03,17,7.20
2013,04,25,03,18,7.20
2013,04,25,03,19,7.20
2013,04,25,03,20,7.20
2013,04,25,03,21,7.20
2013,04,25,03,22,7.20
2013,04,25,03,23,7.20
2013,04,25,03,24,7.20
2013,04,25,03,25,7.20
2013,04,25,03,26,7.20
2013,04,25,03,27,7.20
2013,04,25,03,28,7.20
2013,04,25,03,29,7.20
2013,04,25,03,30,7.20
2013,04,25,03,31,7.20
2013,04,25,03,32,7.20
2013,04,25,03,33,7.20
2013,04,25,03,34,7.20
2013,04,25,03,35,7.20
2013,04,25,03,36,7.20
2013,04,25,03,37,7.20
2013,04,25,03,38,7.20
2013,04,25,03,39,7.20
2013,04,25,03,40,7.20
2013,04,25,03,41,7.10
2013,04,25,03,42,7.10
2013,04,25,03,43,7.10
2013,04,25,03,44,7.10
2013,04,25,03,45,7.10
2013,04,25,03,46,7.10
2013,04,25,03,47,7.10
2013,04,25,03,48,7.10
2013,04,25,03,49,7.10
2013,04,25,03,50,7.10
2013,04,25,03,51,7.10
2013,04,25,03,52,7.10
2013,04,25,03,53,7.10
2013,04,25,03,54,7.10
2013,04,25,03,55,7.00
2013,04,25,03,56,7.00
2013,04,25,03,57,7.00
2013,04,25,03,58,7.00
2013,04,25,03,59,7.00
2013,04,25,04,00,7.00
2013,04,25,04,01,6.90
2013,04,25,04,02,6.90
2013,04,25,04,03,6.90
2013,04,25,04,04,6.90
2013,04,25,04,05,6.90
2013,04,25,04,06,6.90
2013,04,25,04,07,6.90
2013,04,25,04,08,6.90
2013,04,25,04,09,6.90
2013,04,25,04,10,6.90
2013,04,25,04,11,6.90
2013,04,25,04,12,6.90
2013,04,25,04,13,6.90
2013,04,25,04,14,6.90
2013,04,25,04,15,6.90
2013,04,25,04,16,6.90
2013,04,25,04,17,6.90
2013,04,25,04,18,6.90
2013,04,25,04,19,6.90
2013,04,25,04,20,6.90
2013,04,25,04,21,6.90
2013,04,25,04,22,6.80
2013,04,25,04,23,6.80
2013,04,25,04,24,6.80
2013,04,25,04,25,6.80
2013,04,25,04,26,6.80
2013,04,25,04,27,6.80
2013,04,25,04,28,6.80
2013,04,25,04,29,6.80
2013,04,25,04,30,6.80
2013,04,25,04,31,6.80
2013,04,25,04,32,6.80
2013,04,25,04,33,6.80
2013,04,25,04,34,6.80
2013,04,25,04,35,6.70
2013,04,25,04,36,6.70
2013,04,25,04,37,6.70
2013,04,25,04,38,6.70
2013,04,25,04,39,6.70
2013,04,25,04,40,6.70
2013,04,25,04,41,6.70
2013,04,25,04,42,6.60
2013,04,25,04,43,6.60
2013,04,25,04,44,6.60
2013,04,25,04,45,6.60
2013,04,25,04,46,6.60
2013,04,25,04,47,6.50
2013,04,25,04,48,6.50
2013,04,25,04,49,6.50
2013,04,25,04,50,6.40
2013,04,25,04,51,6.40
2013,04,25,04,52,6.40
2013,04,25,04,53,6.40
2013,04,25,04,54,6.30
2013,04,25,04,55,6.30
2013,04,25,04,56,6.30
2013,04,25,04,57,6.30
2013,04,25,04,58,6.30
2013,04,25,04,59,6.20
2013,04,25,05,00,6.20
2013,04,25,05,01,6.20
2013,04,25,05,02,6.20
2013,04,25,05,03,6.10
2013,04,25,05,04,6.10
2013,04,25,05,05,6.10
2013,04,25,05,06,6.10
2013,04,25,05,07,6.00
2013,04,25,05,08,6.00
2013,04,25,05,09,6.00
2013,04,25,05,10,6.00
2013,04,25,05,11,5.90
2013,04,25,05,12,5.90
2013,04,25,05,13,5.90
2013,04,25,05,14,5.90
2013,04,25,05,15,5.90
2013,04,25,05,16,5.80
2013,04,25,05,17,5.80
2013,04,25,05,18,5.80
2013,04,25,05,19,5.80
2013,04,25,05,20,5.80
2013,04,25,05,21,5.80
2013,04,25,05,22,5.70
2013,04,25,05,23,5.70
2013,04,25,05,24,5.70
2013,04,25,05,25,5.70
2013,04,25,05,26,5.70
2013,04,25,05,27,5.80
2013,04,25,05,28,5.80
2013,04,25,05,29,5.80
2013,04,25,05,30,5.90
2013,04,25,05,31,5.90
2013,04,25,05,32,5.90
2013,04,25,05,33,5.90
2013,04,25,05,34,5.90
2013,04,25,05,35,5.90
2013,04,25,05,36,6.00
2013,04,25,05,37,6.00
2013,04,25,05,38,6.00
2013,04,25,05,39,6.00
2013,04,25,05,40,6.00
2013,04,25,05,41,6.00
2013,04,25,05,42,6.00
2013,04,25,05,43,6.00
2013,04,25,05,44,6.00
2013,04,25,05,45,6.00
2013,04,25,05,46,6.00
2013,04,25,05,47,6.00
2013,04,25,05,48,6.00
2013,04,25,05,49,6.00
2013,04,25,05,50,5.90
2013,04,25,05,51,6.00
2013,04,25,05,52,5.90
2013,04,25,05,53,5.90
2013,04,25,05,54,5.90
2013,04,25,05,55,5.90
2013,04,25,05,56,5.90
2013,04,25,05,57,5.90
2013,04,25,05,58,5.90
2013,04,25,05,59,5.90
2013,04,25,06,00,5.90
2013,04,25,06,01,5.90
2013,04,25,06,02,5.90
2013,04,25,06,03,5.90
2013,04,25,06,04,5.90
2013,04,25,06,05,5.90
2013,04,25,06,06,5.90
2013,04,25,06,07,5.80
2013,04,25,06,08,5.80
2013,04,25,06,09,5.80
2013,04,25,06,10,5.80
2013,04,25,06,11,5.80
2013,04,25,06,12,5.70
2013,04,25,06,13,5.70
2013,04,25,06,14,5.70
2013,04,25,06,15,5.70
2013,04,25,06,16,5.60
2013,04,25,06,17,5.60
2013,04,25,06,18,5.60
2013,04,25,06,19,5.60
2013,04,25,06,20,5.60
2013,04,25,06,21,5.60
2013,04,25,06,22,5.70
2013,04,25,06,23,5.70
2013,04,25,06,24,5.70
2013,04,25,06,25,5.70
2013,04,25,06,26,5.60
2013,04,25,06,27,5.60
2013,04,25,06,28,5.60
2013,04,25,06,29,5.60
2013,04,25,06,30,5.60
2013,04,25,06,31,5.60
2013,04,25,06,32,5.70
2013,04,25,06,33,5.70
2013,04,25,06,34,5.70
2013,04,25,06,35,5.70
2013,04,25,06,36,5.70
2013,04,25,06,37,5.70
2013,04,25,06,38,5.70
2013,04,25,06,39,5.70
2013,04,25,06,40,5.70
2013,04,25,06,41,5.70
2013,04,25,06,42,5.70
2013,04,25,06,43,5.70
2013,04,25,06,44,5.70
2013,04,25,06,45,5.70
2013,04,25,06,46,5.70
2013,04,25,06,47,5.70
2013,04,25,06,48,5.70
2013,04,25,06,49,5.70
2013,04,25,06,50,5.70
2013,04,25,06,51,5.70
2013,04,25,06,52,5.80
2013,04,25,06,53,5.80
2013,04,25,06,54,5.80
2013,04,25,06,55,5.80
2013,04,25,06,56,5.80
2013,04,25,06,57,5.80
2013,04,25,06,58,5.80
2013,04,25,06,59,5.80
2013,04,25,07,00,5.80
2013,04,25,07,01,5.80
2013,04,25,07,02,5.80
2013,04,25,07,03,5.90
2013,04,25,07,04,5.90
2013,04,25,07,05,5.90
2013,04,25,07,06,5.90
2013,04,25,07,07,5.90
2013,04,25,07,08,5.90
2013,04,25,07,09,5.90
2013,04,25,07,10,5.90
2013,04,25,07,11,5.90
2013,04,25,07,12,5.90
2013,04,25,07,13,5.90
2013,04,25,07,14,6.00
2013,04,25,07,15,6.00
2013,04,25,07,16,6.00
2013,04,25,07,17,6.00
2013,04,25,07,18,6.10
2013,04,25,07,19,6.10
2013,04,25,07,20,6.10
2013,04,25,07,21,6.10
2013,04,25,07,22,6.20
2013,04,25,07,23,6.20
2013,04,25,07,24,6.20
2013,04,25,07,25,6.20
2013,04,25,07,26,6.20
2013,04,25,07,27,6.20
2013,04,25,07,28,6.20
2013,04,25,07,29,6.20
2013,04,25,07,30,6.20
2013,04,25,07,31,6.20
2013,04,25,07,32,6.30
2013,04,25,07,33,6.30
2013,04,25,07,34,6.30
2013,04,25,07,35,6.30
2013,04,25,07,36,6.30
2013,04,25,07,37,6.40
2013,04,25,07,38,6.40
2013,04,25,07,39,6.40
2013,04,25,07,40,6.40
2013,04,25,07,41,6.40
2013,04,25,07,42,6.50
2013,04,25,07,43,6.60
2013,04,25,07,44,6.60
2013,04,25,07,45,6.60
2013,04,25,07,46,6.70
2013,04,25,07,47,6.70
2013,04,25,07,48,6.70
2013,04,25,07,49,6.70
2013,04,25,07,50,6.70
2013,04,25,07,51,6.70
2013,04,25,07,52,6.80
2013,04,25,07,53,6.80
2013,04,25,07,54,6.80
2013,04,25,07,55,6.90
2013,04,25,07,56,6.90
2013,04,25,07,57,6.90
2013,04,25,07,58,7.00
2013,04,25,07,59,7.00
2013,04,25,08,00,7.10
2013,04,25,08,01,7.10
2013,04,25,08,02,7.20
2013,04,25,08,03,7.20
2013,04,25,08,04,7.20
2013,04,25,08,05,7.20
2013,04,25,08,06,7.20
2013,04,25,08,07,7.30
2013,04,25,08,08,7.30
2013,04,25,08,09,7.30
2013,04,25,08,10,7.40
2013,04,25,08,11,7.40
2013,04,25,08,12,7.50
2013,04,25,08,13,7.50
2013,04,25,08,14,7.50
2013,04,25,08,15,7.60
2013,04,25,08,16,7.60
2013,04,25,08,17,7.60
2013,04,25,08,18,7.60
2013,04,25,08,19,7.70
2013,04,25,08,20,7.70
2013,04,25,08,21,7.70
2013,04,25,08,22,7.70
2013,04,25,08,23,7.80
2013,04,25,08,24,7.80
2013,04,25,08,25,7.90
2013,04,25,08,26,7.90
2013,04,25,08,27,8.00
2013,04,25,08,28,8.10
2013,04,25,08,29,8.10
2013,04,25,08,30,8.20
2013,04,25,08,31,8.20
2013,04,25,08,32,8.30
2013,04,25,08,33,8.30
2013,04,25,08,34,8.30
2013,04,25,08,35,8.40
2013,04,25,08,36,8.40
2013,04,25,08,37,8.40
2013,04,25,08,38,8.50
2013,04,25,08,39,8.60
2013,04,25,08,40,8.60
2013,04,25,08,41,8.70
2013,04,25,08,42,8.80
2013,04,25,08,43,8.80
2013,04,25,08,44,8.90
2013,04,25,08,45,9.00
2013,04,25,08,46,9.00
2013,04,25,08,47,9.10
2013,04,25,08,48,9.20
2013,04,25,08,49,9.30
2013,04,25,08,50,9.40
2013,04,25,08,51,9.50
2013,04,25,08,52,9.50
2013,04,25,08,53,9.60
2013,04,25,08,54,9.70
2013,04,25,08,55,9.70
2013,04,25,08,56,9.80
2013,04,25,08,57,9.90
2013,04,25,08,58,9.90
2013,04,25,08,59,10.00
2013,04,25,09,00,10.00
2013,04,25,09,01,10.10
2013,04,25,09,02,10.10
2013,04,25,09,03,10.20
2013,04,25,09,04,10.20
2013,04,25,09,05,10.30
2013,04,25,09,06,10.30
2013,04,25,09,07,10.30
2013,04,25,09,08,10.40
2013,04,25,09,09,10.40
2013,04,25,09,10,10.40
2013,04,25,09,11,10.40
2013,04,25,09,12,10.50
2013,04,25,09,13,10.50
2013,04,25,09,14,10.50
2013,04,25,09,15,10.60
2013,04,25,09,16,10.60
2013,04,25,09,17,10.60
2013,04,25,09,18,10.70
2013,04,25,09,19,10.70
2013,04,25,09,20,10.80
2013,04,25,09,21,10.80
2013,04,25,09,22,10.90
2013,04,25,09,23,10.90
2013,04,25,09,24,11.00
2013,04,25,09,25,11.00
2013,04,25,09,26,11.10
2013,04,25,09,27,11.10
2013,04,25,09,28,11.20
2013,04,25,09,29,11.20
2013,04,25,09,30,11.30
2013,04,25,09,31,11.40
2013,04,25,09,32,11.50
2013,04,25,09,33,11.60
2013,04,25,09,34,11.70
2013,04,25,09,35,11.70
2013,04,25,09,36,11.80
2013,04,25,09,37,11.90
2013,04,25,09,38,12.00
2013,04,25,09,39,12.10
2013,04,25,09,40,12.20
2013,04,25,09,41,12.20
2013,04,25,09,42,12.30
2013,04,25,09,43,12.40
2013,04,25,09,44,12.50
2013,04,25,09,45,12.60
2013,04,25,09,46,12.70
2013,04,25,09,47,12.70
2013,04,25,09,48,12.80
2013,04,25,09,49,12.90
2013,04,25,09,50,12.90
2013,04,25,09,51,13.00
2013,04,25,09,52,13.10
2013,04,25,09,53,13.20
2013,04,25,09,54,13.20
2013,04,25,09,55,13.30
2013,04,25,09,56,13.30
2013,04,25,09,57,13.40
2013,04,25,09,58,13.50
2013,04,25,09,59,13.60
2013,04,25,10,00,13.70
2013,04,25,10,01,13.70
2013,04,25,10,02,13.80
2013,04,25,10,03,13.80
2013,04,25,10,04,13.80
2013,04,25,10,05,13.80
2013,04,25,10,06,13.80
2013,04,25,10,07,13.80
2013,04,25,10,08,13.90
2013,04,25,10,09,13.90
2013,04,25,10,10,13.90
2013,04,25,10,11,13.90
2013,04,25,10,12,13.90
2013,04,25,10,13,13.90
2013,04,25,10,14,14.00
2013,04,25,10,15,14.00
2013,04,25,10,16,14.10
2013,04,25,10,17,14.10
2013,04,25,10,18,14.10
2013,04,25,10,19,14.10
2013,04,25,10,20,14.20
2013,04,25,10,21,14.20
2013,04,25,10,22,14.20
2013,04,25,10,23,14.20
2013,04,25,10,24,14.20
2013,04,25,10,25,14.30
2013,04,25,10,26,14.30
2013,04,25,10,27,14.30
2013,04,25,10,28,14.30
2013,04,25,10,29,14.30
2013,04,25,10,30,14.30
2013,04,25,10,31,14.30
2013,04,25,10,32,14.30
2013,04,25,10,33,14.30
2013,04,25,10,34,14.40
2013,04,25,10,35,14.40
2013,04,25,10,36,14.40
2013,04,25,10,37,14.50
2013,04,25,10,38,14.50
2013,04,25,10,39,14.60
2013,04,25,10,40,14.60
2013,04,25,10,41,14.70
2013,04,25,10,42,14.70
2013,04,25,10,43,14.70
2013,04,25,10,44,14.70
2013,04,25,10,45,14.70
2013,04,25,10,46,14.80
2013,04,25,10,47,14.80
2013,04,25,10,48,14.80
2013,04,25,10,49,14.80
2013,04,25,10,50,14.80
2013,04,25,10,51,14.80
2013,04,25,10,52,14.90
2013,04,25,10,53,15.00
2013,04,25,10,54,15.00
2013,04,25,10,55,15.00
2013,04,25,10,56,15.00
2013,04,25,10,57,15.00
2013,04,25,10,58,15.00
2013,04,25,10,59,15.00
2013,04,25,11,00,15.00
2013,04,25,11,01,15.00
2013,04,25,11,02,15.00
2013,04,25,11,03,15.00
2013,04,25,11,04,15.00
2013,04,25,11,05,15.00
2013,04,25,11,06,15.00
2013,04,25,11,07,15.00
2013,04,25,11,08,15.00
2013,04,25,11,09,14.90
2013,04,25,11,10,14.90
2013,04,25,11,11,14.90
2013,04,25,11,12,14.80
2013,04,25,11,13,14.80
2013,04,25,11,14,14.80
2013,04,25,11,15,14.80
2013,04,25,11,16,14.80
2013,04,25,11,17,14.80
2013,04,25,11,18,14.80
2013,04,25,11,19,14.90
2013,04,25,11,20,15.00
2013,04,25,11,21,15.00
2013,04,25,11,22,15.00
2013,04,25,11,23,15.00
2013,04,25,11,24,15.20
2013,04,25,11,25,15.30
2013,04,25,11,26,15.30
2013,04,25,11,27,15.40
2013,04,25,11,28,15.40
2013,04,25,11,29,15.40
2013,04,25,11,30,15.50
2013,04,25,11,31,15.50
2013,04,25,11,32,15.50
2013,04,25,11,33,15.50
2013,04,25,11,34,15.50
2013,04,25,11,35,15.50
2013,04,25,11,36,15.60
2013,04,25,11,37,15.60
2013,04,25,11,38,15.60
2013,04,25,11,39,15.70
2013,04,25,11,40,15.70
2013,04,25,11,41,15.70
2013,04,25,11,42,15.60
2013,04,25,11,43,15.60
2013,04,25,11,44,15.60
2013,04,25,11,45,15.50
2013,04,25,11,46,15.50
2013,04,25,11,47,15.50
2013,04,25,11,48,15.50
2013,04,25,11,49,15.60
2013,04,25,11,50,15.60
2013,04,25,11,51,15.70
2013,04,25,11,52,15.70
2013,04,25,11,53,15.80
2013,04,25,11,54,15.80
2013,04,25,11,55,15.90
2013,04,25,11,56,16.00
2013,04,25,11,57,16.00
2013,04,25,11,58,16.10
2013,04,25,11,59,16.10
2013,04,25,12,00,16.10
2013,04,25,12,01,16.10
2013,04,25,12,02,16.10
2013,04,25,12,03,16.20
2013,04,25,12,04,16.20
2013,04,25,12,05,16.20
2013,04,25,12,06,16.20
2013,04,25,12,07,16.30
2013,04,25,12,08,16.30
2013,04,25,12,09,16.30
2013,04,25,12,10,16.30
2013,04,25,12,11,16.30
2013,04,25,12,12,16.30
2013,04,25,12,13,16.30
2013,04,25,12,14,16.30
2013,04,25,12,15,16.30
2013,04,25,12,16,16.20
2013,04,25,12,17,16.20
2013,04,25,12,18,16.30
2013,04,25,12,19,16.30
2013,04,25,12,20,16.30
2013,04,25,12,21,16.30
2013,04,25,12,22,16.20
2013,04,25,12,23,16.20
2013,04,25,12,24,16.30
2013,04,25,12,25,16.30
2013,04,25,12,26,16.30
2013,04,25,12,27,16.40
2013,04,25,12,28,16.50
2013,04,25,12,29,16.60
2013,04,25,12,30,16.60
2013,04,25,12,31,16.60
2013,04,25,12,32,16.50
2013,04,25,12,33,16.50
2013,04,25,12,34,16.40
2013,04,25,12,35,16.30
2013,04,25,12,36,16.30
2013,04,25,12,37,16.30
2013,04,25,12,38,16.30
2013,04,25,12,39,16.30
2013,04,25,12,40,16.40
2013,04,25,12,41,16.40
2013,04,25,12,42,16.40
2013,04,25,12,43,16.40
2013,04,25,12,44,16.40
2013,04,25,12,45,16.40
2013,04,25,12,46,16.40
2013,04,25,12,47,16.30
2013,04,25,12,48,16.30
2013,04,25,12,49,16.20
2013,04,25,12,50,16.10
2013,04,25,12,51,16.10
2013,04,25,12,52,16.00
2013,04,25,12,53,15.90
2013,04,25,12,54,15.90
2013,04,25,12,55,15.90
2013,04,25,12,56,16.00
2013,04,25,12,57,16.00
2013,04,25,12,58,16.10
2013,04,25,12,59,16.10
2013,04,25,13,00,16.20
2013,04,25,13,01,16.20
2013,04,25,13,02,16.30
2013,04,25,13,03,16.30
2013,04,25,13,04,16.30
2013,04,25,13,05,16.30
2013,04,25,13,06,16.30
2013,04,25,13,07,16.40
2013,04,25,13,08,16.40
2013,04,25,13,09,16.40
2013,04,25,13,10,16.50
2013,04,25,13,11,16.60
2013,04,25,13,12,16.70
2013,04,25,13,13,16.80
2013,04,25,13,14,16.80
2013,04,25,13,15,16.90
2013,04,25,13,16,17.00
2013,04,25,13,17,17.00
2013,04,25,13,18,17.00
2013,04,25,13,19,17.00
2013,04,25,13,20,17.10
2013,04,25,13,21,17.10
2013,04,25,13,22,17.10
2013,04,25,13,23,17.20
2013,04,25,13,24,17.20
2013,04,25,13,25,17.20
2013,04,25,13,26,17.20
2013,04,25,13,27,17.20
2013,04,25,13,28,17.20
2013,04,25,13,29,17.20
2013,04,25,13,30,17.20
2013,04,25,13,31,17.30
2013,04,25,13,32,17.30
2013,04,25,13,33,17.20
2013,04,25,13,34,17.20
2013,04,25,13,35,17.20
2013,04,25,13,36,17.10
2013,04,25,13,37,17.10
2013,04,25,13,38,17.10
2013,04,25,13,39,17.10
2013,04,25,13,40,17.10
2013,04,25,13,41,17.20
2013,04,25,13,42,17.20
2013,04,25,13,43,17.20
2013,04,25,13,44,17.30
2013,04,25,13,45,17.30
2013,04,25,13,46,17.40
2013,04,25,13,47,17.50
2013,04,25,13,48,17.60
2013,04,25,13,49,17.70
2013,04,25,13,50,17.80
2013,04,25,13,51,17.80
2013,04,25,13,52,17.80
2013,04,25,13,53,17.80
2013,04,25,13,54,17.70
2013,04,25,13,55,17.50
2013,04,25,13,56,17.40
2013,04,25,13,57,17.30
2013,04,25,13,58,17.30
2013,04,25,13,59,17.30
2013,04,25,14,00,17.30
2013,04,25,14,01,17.30
2013,04,25,14,02,17.30
2013,04,25,14,03,17.30
2013,04,25,14,04,17.40
2013,04,25,14,05,17.50
2013,04,25,14,06,17.50
2013,04,25,14,07,17.50
2013,04,25,14,08,17.50
2013,04,25,14,09,17.60
2013,04,25,14,10,17.60
2013,04,25,14,11,17.70
2013,04,25,14,12,17.70
2013,04,25,14,13,17.80
2013,04,25,14,14,17.80
2013,04,25,14,15,17.80
2013,04,25,14,16,17.90
2013,04,25,14,17,17.90
2013,04,25,14,18,17.90
2013,04,25,14,19,17.90
2013,04,25,14,20,17.90
2013,04,25,14,21,17.80
2013,04,25,14,22,17.80
2013,04,25,14,23,17.70
2013,04,25,14,24,17.80
2013,04,25,14,25,17.80
2013,04,25,14,26,17.80
2013,04,25,14,27,17.80
2013,04,25,14,28,17.80
2013,04,25,14,29,17.80
2013,04,25,14,30,17.80
2013,04,25,14,31,17.80
2013,04,25,14,32,17.80
2013,04,25,14,33,17.80
2013,04,25,14,34,17.80
2013,04,25,14,35,17.90
2013,04,25,14,36,17.90
2013,04,25,14,37,18.00
2013,04,25,14,38,18.00
2013,04,25,14,39,18.10
2013,04,25,14,40,18.20
2013,04,25,14,41,18.20
2013,04,25,14,42,18.30
2013,04,25,14,43,18.20
2013,04,25,14,44,18.20
2013,04,25,14,45,18.20
2013,04,25,14,46,18.20
2013,04,25,14,47,18.20
2013,04,25,14,48,18.20
2013,04,25,14,49,18.20
2013,04,25,14,50,18.20
2013,04,25,14,51,18.20
2013,04,25,14,52,18.20
2013,04,25,14,53,18.10
2013,04,25,14,54,18.10
2013,04,25,14,55,18.10
2013,04,25,14,56,18.20
2013,04,25,14,57,18.20
2013,04,25,14,58,18.10
2013,04,25,14,59,18.10
2013,04,25,15,00,18.00
2013,04,25,15,01,17.90
2013,04,25,15,02,17.90
2013,04,25,15,03,17.90
2013,04,25,15,04,18.00
2013,04,25,15,05,18.10
2013,04,25,15,06,18.20
2013,04,25,15,07,18.20
2013,04,25,15,08,18.20
2013,04,25,15,09,18.20
2013,04,25,15,10,18.20
2013,04,25,15,11,18.20
2013,04,25,15,12,18.20
2013,04,25,15,13,18.20
2013,04,25,15,14,18.30
2013,04,25,15,15,18.30
2013,04,25,15,16,18.40
2013,04,25,15,17,18.40
2013,04,25,15,18,18.50
2013,04,25,15,19,18.50
2013,04,25,15,20,18.60
2013,04,25,15,21,18.60
2013,04,25,15,22,18.60
2013,04,25,15,23,18.60
2013,04,25,15,24,18.60
2013,04,25,15,25,18.50
2013,04,25,15,26,18.40
2013,04,25,15,27,18.40
2013,04,25,15,28,18.40
2013,04,25,15,29,18.30
2013,04,25,15,30,18.40
2013,04,25,15,31,18.30
2013,04,25,15,32,18.30
2013,04,25,15,33,18.30
2013,04,25,15,34,18.30
2013,04,25,15,35,18.30
2013,04,25,15,36,18.20
2013,04,25,15,37,18.20
2013,04,25,15,38,18.20
2013,04,25,15,39,18.30
2013,04,25,15,40,18.30
2013,04,25,15,41,18.30
2013,04,25,15,42,18.30
2013,04,25,15,43,18.30
2013,04,25,15,44,18.30
2013,04,25,15,45,18.30
2013,04,25,15,46,18.20
2013,04,25,15,47,18.20
2013,04,25,15,48,18.20
2013,04,25,15,49,18.10
2013,04,25,15,50,18.10
2013,04,25,15,51,18.00
2013,04,25,15,52,17.90
2013,04,25,15,53,17.80
2013,04,25,15,54,17.80
2013,04,25,15,55,17.80
2013,04,25,15,56,17.80
2013,04,25,15,57,17.80
2013,04,25,15,58,17.80
2013,04,25,15,59,17.80
2013,04,25,16,00,17.80
2013,04,25,16,01,17.70
2013,04,25,16,02,17.70
2013,04,25,16,03,17.70
2013,04,25,16,04,17.70
2013,04,25,16,05,17.80
2013,04,25,16,06,17.80
2013,04,25,16,07,17.80
2013,04,25,16,08,17.90
2013,04,25,16,09,18.00
2013,04,25,16,10,18.00
2013,04,25,16,11,18.10
2013,04,25,16,12,18.10
2013,04,25,16,13,18.10
2013,04,25,16,14,18.10
2013,04,25,16,15,18.10
2013,04,25,16,16,18.10
2013,04,25,16,17,18.00
2013,04,25,16,18,18.00
2013,04,25,16,19,18.00
2013,04,25,16,20,18.00
2013,04,25,16,21,18.00
2013,04,25,16,22,18.00
2013,04,25,16,23,17.90
2013,04,25,16,24,18.00
2013,04,25,16,25,18.00
2013,04,25,16,26,18.10
2013,04,25,16,27,18.10
2013,04,25,16,28,18.20
2013,04,25,16,29,18.30
2013,04,25,16,30,18.30
2013,04,25,16,31,18.30
2013,04,25,16,32,18.30
2013,04,25,16,33,18.30
2013,04,25,16,34,18.40
2013,04,25,16,35,18.40
2013,04,25,16,36,18.50
2013,04,25,16,37,18.60
2013,04,25,16,38,18.70
2013,04,25,16,39,18.80
2013,04,25,16,40,18.70
2013,04,25,16,41,18.70
2013,04,25,16,42,18.60
2013,04,25,16,43,18.60
2013,04,25,16,44,18.50
2013,04,25,16,45,18.50
2013,04,25,16,46,18.40
2013,04,25,16,47,18.30
2013,04,25,16,48,18.20
2013,04,25,16,49,18.10
2013,04,25,16,50,18.00
2013,04,25,16,51,17.90
2013,04,25,16,52,17.80
2013,04,25,16,53,17.80
2013,04,25,16,54,17.80
2013,04,25,16,55,17.80
2013,04,25,16,56,17.80
2013,04,25,16,57,17.70
2013,04,25,16,58,17.70
2013,04,25,16,59,17.80
2013,04,25,17,00,17.80
2013,04,25,17,01,17.80
2013,04,25,17,02,17.90
2013,04,25,17,03,17.90
2013,04,25,17,04,17.90
2013,04,25,17,05,17.90
2013,04,25,17,06,18.00
2013,04,25,17,07,18.10
2013,04,25,17,08,18.10
2013,04,25,17,09,18.20
2013,04,25,17,10,18.20
2013,04,25,17,11,18.30
2013,04,25,17,12,18.30
2013,04,25,17,13,18.30
2013,04,25,17,14,18.40
2013,04,25,17,15,18.40
2013,04,25,17,16,18.50
2013,04,25,17,17,18.60
2013,04,25,17,18,18.60
2013,04,25,17,19,18.60
2013,04,25,17,20,18.60
2013,04,25,17,21,18.60
2013,04,25,17,22,18.50
2013,04,25,17,23,18.50
2013,04,25,17,24,18.50
2013,04,25,17,25,18.40
2013,04,25,17,26,18.40
2013,04,25,17,27,18.30
2013,04,25,17,28,18.20
2013,04,25,17,29,18.10
2013,04,25,17,30,18.00
2013,04,25,17,31,17.90
2013,04,25,17,32,17.80
2013,04,25,17,33,17.70
2013,04,25,17,34,17.70
2013,04,25,17,35,17.70
2013,04,25,17,36,17.70
2013,04,25,17,37,17.70
2013,04,25,17,38,17.60
2013,04,25,17,39,17.60
2013,04,25,17,40,17.60
2013,04,25,17,41,17.60
2013,04,25,17,42,17.60